Time,TemperatureF,DewpointF,PressureIn,WindDirection,WindDirectionDegrees,WindSpeedMPH,WindSpeedGustMPH,Humidity,HourlyPrecipIn,Conditions,Clouds,dailyrainin,SoftwareType,DateUTC
2013-06-15 00:02:00,54.0,46.0,29.84,SW,227,0.0,4.0,75,0.00,,,0.00,,2013-06-15 04:02:00,
2013-06-15 00:12:00,54.0,46.0,29.84,SW,227,0.0,4.0,75,0.00,,,0.00,,2013-06-15 04:12:00,
2013-06-15 00:22:00,55.0,47.0,29.84,West,274,0.0,3.0,73,0.00,,,0.00,,2013-06-15 04:22:00,
2013-06-15 00:34:00,55.0,47.0,29.84,West,274,0.0,3.0,73,0.00,,,0.00,,2013-06-15 04:34:00,
2013-06-15 00:43:00,53.0,45.0,29.84,WNW,282,0.0,2.0,74,0.00,,,0.00,,2013-06-15 04:43:00,
2013-06-15 00:54:00,53.0,45.0,29.84,WNW,282,0.0,2.0,74,0.00,,,0.00,,2013-06-15 04:54:00,
2013-06-15 01:02:00,52.0,44.0,29.84,SW,233,1.0,3.0,75,0.00,,,0.00,,2013-06-15 05:02:00,
2013-06-15 01:12:00,51.0,44.0,29.84,West,266,0.0,1.0,77,0.00,,,0.00,,2013-06-15 05:12:00,
2013-06-15 01:22:00,51.0,45.0,29.84,SW,226,0.0,1.0,79,0.00,,,0.00,,2013-06-15 05:22:00,
2013-06-15 01:34:00,51.0,45.0,29.84,SW,226,0.0,1.0,79,0.00,,,0.00,,2013-06-15 05:34:00,
2013-06-15 01:43:00,50.0,45.0,29.84,SW,224,0.0,1.0,82,0.00,,,0.00,,2013-06-15 05:43:00,
2013-06-15 01:52:00,50.0,45.0,29.84,SW,224,0.0,1.0,82,0.00,,,0.00,,2013-06-15 05:52:00,
2013-06-15 02:02:00,51.0,45.0,29.85,West,261,0.0,2.0,79,0.00,,,0.00,,2013-06-15 06:02:00,
2013-06-15 02:12:00,50.0,45.0,29.85,SSW,213,0.0,2.0,82,0.00,,,0.00,,2013-06-15 06:12:00,
2013-06-15 02:24:00,50.0,45.0,29.86,SW,236,0.0,2.0,83,0.00,,,0.00,,2013-06-15 06:24:00,
2013-06-15 02:33:00,50.0,45.0,29.86,SW,236,0.0,2.0,83,0.00,,,0.00,,2013-06-15 06:33:00,
2013-06-15 02:43:00,50.0,44.0,29.86,West,264,1.0,3.0,80,0.00,,,0.00,,2013-06-15 06:43:00,
2013-06-15 02:53:00,50.0,44.0,29.86,West,264,1.0,3.0,80,0.00,,,0.00,,2013-06-15 06:53:00,
2013-06-15 03:01:00,50.0,44.0,29.86,SW,233,1.0,3.0,81,0.00,,,0.00,,2013-06-15 07:01:00,
2013-06-15 03:11:00,49.0,43.0,29.86,West,271,0.0,2.0,81,0.00,,,0.00,,2013-06-15 07:11:00,
2013-06-15 03:23:00,49.0,44.0,29.86,SW,230,0.0,2.0,82,0.00,,,0.00,,2013-06-15 07:23:00,
2013-06-15 03:33:00,49.0,44.0,29.86,SW,230,0.0,2.0,82,0.00,,,0.00,,2013-06-15 07:33:00,
2013-06-15 03:43:00,48.0,42.0,29.87,West,272,0.0,1.0,81,0.00,,,0.00,,2013-06-15 07:43:00,
2013-06-15 03:53:00,48.0,42.0,29.87,West,272,0.0,1.0,81,0.00,,,0.00,,2013-06-15 07:53:00,
2013-06-15 04:02:00,48.0,43.0,29.88,West,272,0.0,1.0,82,0.00,,,0.00,,2013-06-15 08:02:00,
2013-06-15 04:11:00,47.0,42.0,29.88,West,272,0.0,1.0,84,0.00,,,0.00,,2013-06-15 08:11:00,
2013-06-15 04:22:00,47.0,42.0,29.88,West,272,0.0,1.0,84,0.00,,,0.00,,2013-06-15 08:22:00,
2013-06-15 04:33:00,47.0,43.0,29.88,West,269,0.0,1.0,85,0.00,,,0.00,,2013-06-15 08:33:00,
2013-06-15 04:43:00,47.0,43.0,29.88,West,280,0.0,1.0,87,0.00,,,0.00,,2013-06-15 08:43:00,
2013-06-15 04:53:00,47.0,43.0,29.89,WSW,238,0.0,1.0,86,0.00,,,0.00,,2013-06-15 08:53:00,
2013-06-15 05:02:00,47.0,43.0,29.89,WSW,238,0.0,1.0,86,0.00,,,0.00,,2013-06-15 09:02:00,
2013-06-15 05:12:00,47.0,43.0,29.90,WSW,239,0.0,1.0,87,0.00,,,0.00,,2013-06-15 09:12:00,
2013-06-15 05:22:00,47.0,43.0,29.90,WSW,239,0.0,1.0,87,0.00,,,0.00,,2013-06-15 09:22:00,
2013-06-15 05:33:00,47.0,43.0,29.89,West,261,0.0,1.0,86,0.00,,,0.00,,2013-06-15 09:33:00,
2013-06-15 05:43:00,47.0,43.0,29.90,SW,231,0.0,2.0,86,0.00,,,0.00,,2013-06-15 09:43:00,
2013-06-15 05:52:00,47.0,43.0,29.90,SW,231,0.0,2.0,86,0.00,,,0.00,,2013-06-15 09:52:00,
2013-06-15 06:02:00,46.0,42.0,29.90,WSW,243,0.0,1.0,87,0.00,,,0.00,,2013-06-15 10:02:00,
2013-06-15 06:12:00,48.0,45.0,29.91,WSW,243,0.0,0.0,88,0.00,,,0.00,,2013-06-15 10:12:00,
2013-06-15 06:23:00,48.0,45.0,29.91,WSW,243,0.0,0.0,88,0.00,,,0.00,,2013-06-15 10:23:00,
2013-06-15 06:34:00,51.0,45.0,29.91,WSW,243,0.0,1.0,80,0.00,,,0.00,,2013-06-15 10:34:00,
2013-06-15 07:02:00,57.0,48.0,29.91,WSW,243,0.0,0.0,73,0.00,,,0.00,,2013-06-15 11:02:00,
2013-06-15 07:12:00,58.0,44.0,29.91,WSW,243,0.0,1.0,60,0.00,,,0.00,,2013-06-15 11:12:00,
2013-06-15 07:22:00,58.0,44.0,29.91,SE,125,0.0,1.0,60,0.00,,,0.00,,2013-06-15 11:22:00,
2013-06-15 08:12:00,58.0,43.0,29.93,NE,44,1.0,4.0,57,0.00,,,0.00,,2013-06-15 12:12:00,
2013-06-15 08:33:00,59.0,44.0,29.93,East,87,1.0,5.0,57,0.00,,,0.00,,2013-06-15 12:33:00,
2013-06-15 08:43:00,58.0,44.0,29.93,ENE,76,0.0,6.0,59,0.00,,,0.00,,2013-06-15 12:43:00,
2013-06-15 08:52:00,58.0,44.0,29.93,ENE,76,0.0,6.0,59,0.00,,,0.00,,2013-06-15 12:52:00,
2013-06-15 09:02:00,58.0,43.0,29.94,SSE,156,1.0,9.0,57,0.00,,,0.00,,2013-06-15 13:02:00,
2013-06-15 09:11:00,58.0,43.0,29.94,SSE,156,1.0,9.0,57,0.00,,,0.00,,2013-06-15 13:11:00,
2013-06-15 09:22:00,59.0,44.0,29.93,ESE,113,1.0,7.0,57,0.00,,,0.00,,2013-06-15 13:22:00,
2013-06-15 09:32:00,59.0,41.0,29.93,ENE,77,3.0,6.0,52,0.00,,,0.00,,2013-06-15 13:32:00,
2013-06-15 09:43:00,60.0,43.0,29.93,East,86,4.0,7.0,53,0.00,,,0.00,,2013-06-15 13:43:00,
2013-06-15 09:53:00,60.0,43.0,29.93,East,86,4.0,7.0,53,0.00,,,0.00,,2013-06-15 13:53:00,
2013-06-15 10:02:00,61.0,44.0,29.93,North,4,1.0,5.0,53,0.00,,,0.00,,2013-06-15 14:02:00,
2013-06-15 10:12:00,61.0,43.0,29.93,South,189,1.0,6.0,52,0.00,,,0.00,,2013-06-15 14:12:00,
2013-06-15 10:23:00,61.0,43.0,29.93,South,189,1.0,6.0,52,0.00,,,0.00,,2013-06-15 14:23:00,
2013-06-15 10:34:00,62.0,42.0,29.93,East,89,1.0,6.0,48,0.00,,,0.00,,2013-06-15 14:34:00,
2013-06-15 10:43:00,62.0,42.0,29.93,SSW,204,5.0,8.0,47,0.00,,,0.00,,2013-06-15 14:43:00,
2013-06-15 10:53:00,62.0,42.0,29.93,SSW,204,5.0,8.0,47,0.00,,,0.00,,2013-06-15 14:53:00,
2013-06-15 11:02:00,63.0,44.0,29.93,North,352,2.0,6.0,49,0.00,,,0.00,,2013-06-15 15:02:00,
2013-06-15 11:12:00,63.0,42.0,29.93,SE,128,2.0,10.0,47,0.00,,,0.00,,2013-06-15 15:12:00,
2013-06-15 11:22:00,63.0,42.0,29.93,SE,128,2.0,10.0,47,0.00,,,0.00,,2013-06-15 15:22:00,
2013-06-15 11:33:00,63.0,42.0,29.93,North,349,2.0,7.0,46,0.00,,,0.00,,2013-06-15 15:33:00,
2013-06-15 11:43:00,63.0,43.0,29.93,SE,129,2.0,7.0,48,0.00,,,0.00,,2013-06-15 15:43:00,
2013-06-15 11:53:00,63.0,43.0,29.93,SE,129,2.0,7.0,48,0.00,,,0.00,,2013-06-15 15:53:00,
2013-06-15 12:02:00,63.0,41.0,29.93,WNW,299,3.0,7.0,45,0.00,,,0.00,,2013-06-15 16:02:00,
2013-06-15 12:12:00,64.0,40.0,29.93,ESE,105,4.0,11.0,41,0.00,,,0.00,,2013-06-15 16:12:00,
2013-06-15 12:22:00,64.0,40.0,29.93,ESE,105,4.0,11.0,41,0.00,,,0.00,,2013-06-15 16:22:00,
2013-06-15 12:33:00,65.0,41.0,29.93,West,271,2.0,11.0,42,0.00,,,0.00,,2013-06-15 16:33:00,
2013-06-15 12:43:00,64.0,42.0,29.93,NE,40,6.0,12.0,44,0.00,,,0.00,,2013-06-15 16:43:00,
2013-06-15 12:53:00,64.0,42.0,29.93,NE,40,6.0,12.0,44,0.00,,,0.00,,2013-06-15 16:53:00,
2013-06-15 13:02:00,65.0,43.0,29.93,NE,51,3.0,9.0,45,0.00,,,0.00,,2013-06-15 17:02:00,
2013-06-15 13:12:00,66.0,44.0,29.93,WSW,257,4.0,11.0,45,0.00,,,0.00,,2013-06-15 17:12:00,
2013-06-15 13:22:00,66.0,44.0,29.93,WSW,257,4.0,11.0,45,0.00,,,0.00,,2013-06-15 17:22:00,
2013-06-15 13:32:00,65.0,41.0,29.92,WSW,252,3.0,10.0,42,0.00,,,0.00,,2013-06-15 17:32:00,
2013-06-15 13:43:00,66.0,43.0,29.91,East,79,2.0,8.0,44,0.00,,,0.00,,2013-06-15 17:43:00,
2013-06-15 13:52:00,66.0,43.0,29.91,East,79,2.0,8.0,44,0.00,,,0.00,,2013-06-15 17:52:00,
2013-06-15 14:01:00,66.0,43.0,29.91,ENE,64,3.0,9.0,43,0.00,,,0.00,,2013-06-15 18:01:00,
2013-06-15 14:12:00,67.0,43.0,29.91,North,360,5.0,10.0,42,0.00,,,0.00,,2013-06-15 18:12:00,
2013-06-15 14:22:00,67.0,43.0,29.91,North,360,5.0,10.0,42,0.00,,,0.00,,2013-06-15 18:22:00,
2013-06-15 14:33:00,67.0,44.0,29.90,WNW,300,4.0,10.0,44,0.00,,,0.00,,2013-06-15 18:33:00,
2013-06-15 14:43:00,66.0,44.0,29.90,ENE,65,0.0,9.0,45,0.00,,,0.00,,2013-06-15 18:43:00,
2013-06-15 14:53:00,66.0,44.0,29.90,ENE,65,0.0,9.0,45,0.00,,,0.00,,2013-06-15 18:53:00,
2013-06-15 15:02:00,67.0,48.0,29.89,SSW,205,1.0,6.0,50,0.00,,,0.00,,2013-06-15 19:02:00,
2013-06-15 15:12:00,67.0,44.0,29.89,NE,54,3.0,7.0,44,0.00,,,0.00,,2013-06-15 19:12:00,
2013-06-15 15:22:00,67.0,44.0,29.89,NE,54,3.0,7.0,44,0.00,,,0.00,,2013-06-15 19:22:00,
2013-06-15 15:33:00,66.0,43.0,29.89,NE,54,3.0,13.0,43,0.00,,,0.00,,2013-06-15 19:33:00,
2013-06-15 15:43:00,67.0,43.0,29.88,SW,215,2.0,7.0,42,0.00,,,0.00,,2013-06-15 19:43:00,
2013-06-15 15:52:00,67.0,43.0,29.88,SW,215,2.0,7.0,42,0.00,,,0.00,,2013-06-15 19:52:00,
2013-06-15 16:02:00,67.0,44.0,29.88,WNW,286,4.0,13.0,43,0.00,,,0.00,,2013-06-15 20:02:00,
2013-06-15 16:12:00,68.0,46.0,29.88,WNW,283,2.0,6.0,45,0.00,,,0.00,,2013-06-15 20:12:00,
2013-06-15 16:22:00,68.0,46.0,29.88,WNW,283,2.0,6.0,45,0.00,,,0.00,,2013-06-15 20:22:00,
2013-06-15 16:33:00,68.0,45.0,29.87,East,81,1.0,6.0,44,0.00,,,0.00,,2013-06-15 20:33:00,
2013-06-15 16:43:00,68.0,43.0,29.87,ENE,63,3.0,8.0,41,0.00,,,0.00,,2013-06-15 20:43:00,
2013-06-15 16:53:00,68.0,43.0,29.87,ENE,63,3.0,8.0,41,0.00,,,0.00,,2013-06-15 20:53:00,
2013-06-15 17:02:00,68.0,42.0,29.87,NE,40,3.0,9.0,39,0.00,,,0.00,,2013-06-15 21:02:00,
2013-06-15 17:12:00,67.0,44.0,29.87,East,88,3.0,10.0,43,0.00,,,0.00,,2013-06-15 21:12:00,
2013-06-15 17:22:00,67.0,44.0,29.87,East,88,3.0,10.0,43,0.00,,,0.00,,2013-06-15 21:22:00,
2013-06-15 17:34:00,68.0,43.0,29.87,East,90,3.0,7.0,41,0.00,,,0.00,,2013-06-15 21:34:00,
2013-06-15 17:42:00,68.0,44.0,29.87,ESE,103,2.0,6.0,42,0.00,,,0.00,,2013-06-15 21:42:00,
2013-06-15 17:53:00,68.0,44.0,29.87,ESE,103,2.0,6.0,42,0.00,,,0.00,,2013-06-15 21:53:00,
2013-06-15 18:01:00,68.0,42.0,29.87,ESE,110,1.0,7.0,39,0.00,,,0.00,,2013-06-15 22:01:00,
2013-06-15 18:11:00,67.0,46.0,29.87,East,96,2.0,6.0,46,0.00,,,0.00,,2013-06-15 22:11:00,
2013-06-15 18:22:00,67.0,46.0,29.87,East,96,2.0,6.0,46,0.00,,,0.00,,2013-06-15 22:22:00,
2013-06-15 18:33:00,67.0,42.0,29.87,SE,127,3.0,7.0,40,0.00,,,0.00,,2013-06-15 22:33:00,
2013-06-15 18:43:00,66.0,43.0,29.87,ESE,105,1.0,5.0,44,0.00,,,0.00,,2013-06-15 22:43:00,
2013-06-15 18:53:00,66.0,43.0,29.87,ESE,105,1.0,5.0,44,0.00,,,0.00,,2013-06-15 22:53:00,
2013-06-15 19:02:00,64.0,48.0,29.87,SW,222,0.0,1.0,56,0.00,,,0.00,,2013-06-15 23:02:00,
2013-06-15 19:12:00,61.0,47.0,29.88,WSW,238,0.0,1.0,60,0.00,,,0.00,,2013-06-15 23:12:00,
2013-06-15 19:22:00,61.0,47.0,29.88,WSW,238,0.0,1.0,60,0.00,,,0.00,,2013-06-15 23:22:00,
2013-06-15 19:33:00,59.0,46.0,29.88,SW,235,0.0,1.0,63,0.00,,,0.00,,2013-06-15 23:33:00,
2013-06-15 19:42:00,58.0,47.0,29.88,SW,229,0.0,1.0,66,0.00,,,0.00,,2013-06-15 23:42:00,
2013-06-15 19:53:00,58.0,47.0,29.88,SW,229,0.0,1.0,66,0.00,,,0.00,,2013-06-15 23:53:00,
2013-06-15 20:02:00,57.0,47.0,29.88,SW,218,0.0,2.0,69,0.00,,,0.00,,2013-06-16 00:02:00,
2013-06-15 20:11:00,56.0,47.0,29.89,SW,225,0.0,1.0,72,0.00,,,0.00,,2013-06-16 00:11:00,
2013-06-15 20:22:00,56.0,47.0,29.89,SW,225,0.0,1.0,72,0.00,,,0.00,,2013-06-16 00:22:00,
2013-06-15 20:34:00,55.0,46.0,29.88,SW,236,0.0,2.0,72,0.00,,,0.00,,2013-06-16 00:34:00,
2013-06-15 20:43:00,55.0,46.0,29.88,SW,229,0.0,1.0,72,0.00,,,0.00,,2013-06-16 00:43:00,
2013-06-15 20:52:00,55.0,46.0,29.88,SW,229,0.0,1.0,72,0.00,,,0.00,,2013-06-16 00:52:00,
2013-06-15 21:02:00,54.0,45.0,29.88,SW,232,0.0,1.0,72,0.00,,,0.00,,2013-06-16 01:02:00,
2013-06-15 21:12:00,54.0,45.0,29.88,SW,226,0.0,1.0,72,0.00,,,0.00,,2013-06-16 01:12:00,
2013-06-15 21:22:00,54.0,45.0,29.88,SW,226,0.0,1.0,72,0.00,,,0.00,,2013-06-16 01:22:00,
2013-06-15 21:33:00,54.0,44.0,29.89,SW,233,0.0,1.0,70,0.00,,,0.00,,2013-06-16 01:33:00,
2013-06-15 21:42:00,54.0,44.0,29.89,WSW,239,0.0,1.0,70,0.00,,,0.00,,2013-06-16 01:42:00,
2013-06-15 21:53:00,54.0,44.0,29.89,WSW,239,0.0,1.0,70,0.00,,,0.00,,2013-06-16 01:53:00,
2013-06-15 22:02:00,55.0,45.0,29.90,WSW,244,0.0,2.0,69,0.00,,,0.00,,2013-06-16 02:02:00,
2013-06-15 22:12:00,55.0,45.0,29.90,WSW,244,0.0,2.0,69,0.00,,,0.00,,2013-06-16 02:12:00,
2013-06-15 22:22:00,55.0,45.0,29.91,WNW,284,1.0,4.0,69,0.00,,,0.00,,2013-06-16 02:22:00,
2013-06-15 22:33:00,55.0,45.0,29.91,WNW,284,1.0,3.0,68,0.00,,,0.00,,2013-06-16 02:33:00,
2013-06-15 22:43:00,55.0,45.0,29.91,West,263,0.0,2.0,68,0.00,,,0.00,,2013-06-16 02:43:00,
2013-06-15 22:53:00,55.0,45.0,29.91,West,263,0.0,2.0,68,0.00,,,0.00,,2013-06-16 02:53:00,
2013-06-15 23:02:00,55.0,45.0,29.91,WSW,250,0.0,3.0,69,0.00,,,0.00,,2013-06-16 03:02:00,
2013-06-15 23:12:00,55.0,45.0,29.91,SSW,207,0.0,5.0,70,0.00,,,0.00,,2013-06-16 03:12:00,
2013-06-15 23:22:00,55.0,45.0,29.91,SSW,207,0.0,5.0,70,0.00,,,0.00,,2013-06-16 03:22:00,
2013-06-15 23:34:00,56.0,46.0,29.91,South,187,0.0,4.0,69,0.00,,,0.00,,2013-06-16 03:34:00,
2013-06-15 23:43:00,56.0,46.0,29.91,WSW,258,0.0,4.0,68,0.00,,,0.00,,2013-06-16 03:43:00,
2013-06-15 23:53:00,56.0,46.0,29.91,WSW,258,0.0,4.0,68,0.00,,,0.00,,2013-06-16 03:53:00,